Погода Остров Котельный

Погода Остров Котельный : погода сейчас, прогноз погоды и архив. Всё, что Вы хотите узнать о погоде Остров Котельный!

Поиск расширенной информации на нашем сайте:

Другие новости

Новости СМИ2

Главная страница сайта

Новости сайта

02.10.2013

Напоминаем, что на нашем новом сайте вы можете получить высокодетализированные прогнозы погоды по пунктам России, СНГ и мира (включающие важные для авиации метеовеличины, такие как направление и скорость ветра, видимость, явления погоды, количество и форма облачности, нижняя и верхняя граница облачности), а также ознакомиться с разнообразными материалами по авиационной метеорологии и подборкой полезных ссылок на эту тему.

Сайт Метеоцентр.Азия посвящён разработке технологий оптимизации авиаметеорологического обслуживания, включая проектирование и перспективное создание нескольких автоматизированных авиаметеорологических систем:
- система выпуска высокодетальных прогностических карт явлений погоды для нижнего воздушного пространства по России и ближнему зарубежью;
- система верификации прогнозов TAF (выпускаемых синоптиками официальных АМСГ РФ и ближнего зарубежья) и AUTOTAF (выпускаемых сайтом Метеоцентр.Азия) - выявление ошибок, онлайн-сопоставление с фактической погодой METAR, автоматическое внесение коррективов в прогнозы при резком отклонении фактической погоды от прогноза, подсчёт оправдываемости прогнозов по элементам и в целом;
- система обработки, анализа и отображения авиаметеорологической информации для применения провайдерами метеорологической информации.


Погода Остров Котельный - сегодня

Время (UTC), дата Ветер
(°,м/с) 
Видим.   Явления Облачность Т
(°С)
Тd
(°С)
f(%) Тe
(°С)
Pmin
(гПа)
dP
(гПа)
Po
(мм)
O2
(г/м3)
Тmin Tmax R s Состояние
почвы
12 13.01.17 220 (ЮЗ) 10-11{12}  20000 м  позёмок  ясно 
-28.3 -31.3 76 -40  1032.3  -0.9  773  349    -22       
15 13.01.17 220 (ЮЗ) 9-11{12}  20000 м  позёмок  ясно 
-28.5 -31.7 74 -40  1031.3  -1  772  349           
18 13.01.17 220 (ЮЗ) 10-11{12}  20000 м  позёмок  ясно 
-28.8 -31.9 75 -41  1030.6  -0.7  771  349           
21 13.01.17 220 (ЮЗ) 9-10{12}  20000 м  позёмок  ясно 
-29.1 -32.2 74 -40  1030.5  -0.1  771  350           
00 14.01.17 220 (ЮЗ) 9-11{12}  20000 м  позёмок  ясно 
-28.9 -32.8 69 -40  1030.3  -0.2  771  349  -29.1      13  неравномерный
сухой снег
100% 
03 14.01.17 220 (ЮЗ) 9-10{11}  20000 м  позёмок  ясно 
-29.6 -32.6 75 -41  1029.7  -0.6  771  350  -29.6         
06 14.01.17 220 (ЮЗ) 9-11{12}  20000 м  позёмок  ясно 
-27.9 -31 75 -39  1029.1  -0.6  770  348           
12 14.01.17 210 (ЮЗ) 12-15{16}  2000 м  метель  ясно 
-27.9 -31 75 -40  1027.2  -0.8  769  347    -27.9       
18 14.01.17 220 (ЮЗ) 13-15{16}  2000 м  метель  6/0 средняя, верхняя 
[Ac trans|Ci fib]
-26.9 -30 75 -40  1025.5  -0.8  768  345           
21 14.01.17 230 (ЮЗ) 12-15{16}  4000 м  метель  9/3 300 м средняя 
[Sc|Ac trans]
-23.1 -26.4 74 -34  1024.8  -0.7  767  339           
00 15.01.17 240 (ЮЗ) 10-12{15}  4000 м  метель  10/10 300 м 
[Sc]
-21 -24.3 75 -31  1024.6  -0.2  767  336  -28      14  неравномерный
сухой снег
100% 
06 15.01.17 250 (З) 8-10{11}  20000 м  позёмок  8/6 300 м верхняя 
[Sc|Ci fib]
-18.8 -21.4 80 -27  1023.9  -1.1  766  333           
09 15.01.17 260 (З) 10-12{13}  4000 м  метель  10/10 300 м 
[Sc]
-17.1 -19.7 80 -26  1024.4  0.5  767  331           
12 15.01.17 260 (З) 9-11{13}  4000 м  метель  10/10 300 м 
[Sc]
-16.3 -18.9 80 -25  1025.3  0.9  767  330    -16.1       
15 15.01.17 280 (З) 7{11}  4000 м  слаб. снег  10/10 300 м 
[Sc]
-14.8 -17.5 80 -22  1025.7  0.4  768  329           
18 15.01.17 270 (З) 7{10}  4000 м  слаб. снег  10/10 300 м 
[Sc]
-15 -17.7 80 -22  1026.4  0.7  768  329           
00 16.01.17 250 (З) 20000 м  позёмок{снег}  6/6 300 м 
[Sc]
-20.6 -23.1 80 -29  1027.2  -0.5  769  337  -20.6    0.2  15  неравномерный
сухой снег
100% 
03 16.01.17 240 (ЮЗ) 20000 м  позёмок  4/4 300 м 
[Sc]
-20.7 -27.2 56 -29  1026.1  -0.1  769  337  -24.7         
06 16.01.17 230 (ЮЗ) 8-10{11}  20000 м  позёмок  3/0 верхняя 
[Ci fib]
-25.6 -28.1 80 -35  1027.5  0.4  769  344           
09 16.01.17 230 (ЮЗ) 8{10}  20000 м  позёмок  ясно 
-25.8 -28.3 79 -36  1027.4  -0.1  769  344           
12 16.01.17 220 (ЮЗ) 9-11{12}  20000 м  позёмок  6/0 средняя 
[Ac trans]
-25.5 -28 80 -36  1024.7  -2.7  767  343    -20.6       
15 16.01.17 220 (ЮЗ) 9-11{13}  4000 м  метель  3/0 верхняя 
[Ci fib]
-25.9 -29.1 74 -36  1026.7  768  344           
18 16.01.17 220 (ЮЗ) 10-11{13}  2000 м  метель  6/3 300 м средняя 
[Sc|Ac trans]
-25.3 -28.5 75 -36  1025.9  -0.8  768  343           
21 16.01.17 230 (ЮЗ) 8-10{11}  20000 м  позёмок  8/3 300 м средняя 
[Sc|Ac trans]
-24.7 -27.9 75 -34  1024.8  -1.1  767  342           
03 17.01.17 220 (ЮЗ) 8-10{12}  20000 м  позёмок  3/0 верхняя 
[Ci fib]
-28.7 -31.9 74 -39  1022.5  -1.1  765  347  -28.7         
Время (UTC), дата Ветер
(°,м/с) 
Видим.   Явления Облачность Т
(°С)
Тd
(°С)
f(%) Тe
(°С)
Pmin
(гПа)
dP
(гПа)
Po
(мм)
O2
(г/м3)
Тmin Tmax R s Состояние
почвы

Для получения пояснительной информации подведите курсор к названию столбца.

ПОГОДА Остров Котельный - архив

Всё, что Вы хотите узнать о погоде Остров Котельный - удобно и подробно!

Выберите нужную дату (начиная с 1 января 2015* года) и нажмите кнопку "Найти".
Будут отображены архивные сводки погоды по пункту Остров Котельный, начиная с указанной даты.


Отображать данные в формате CSV (для использования в таблицах Excel)


Внимание! Наш архив погоды предназначен исключительно для личного некоммерческого использования в познавательных целях. Если Вам необходимы официальные справки о состоянии погоды (для производственных, юридических, коммерческих и т.п. целей), обращайтесь в органы Росгидромета.

*Примечание: данная дата относится к архиву по метеостанциям СССР (Россия, СНГ, Балтия).
Архив по метеостанциям Зарубежной Европы и Азии (кроме Китая) хранится 10 дней, по другим регионам земного шара (Китай, Африка, Америка, Австралия, Океания) - 1 день.

Остров Котельный - район местоположения метеостанции


Название, широта, долгота, высота метеостанции:
Остров Котельный 76°ш. 137.9°д. 8 м над ур. моря [Российская Федерация]

Дополнительная информация

В oтличие oт бoльшинства пoгoдных сайтoв мы публикуем пoдрoбную метеoинфoрмацию в детальнoм прoфессиoнальнoм фoрмате.

Характеристики температуры и влажнoсти вoздуха измеряются на высoте 2 м в тени вдали oт зданий и деревьев.
Скoрoсть ветра измеряется на высoте 10 м (на урoвне рoста челoвека скoрoсть ветра ниже в 1.5-2 раза). Если метеoстанция нахoдится в гoрoде или в лесу, тo скoрoсть ветра занижена на 2-4 м/с пo сравнению с oткрытым местoм. Скoрoсть ветра над акватoриями крупных рек и oзёр, а также на вершинах хoлмoв на 2-5 м/с выше, чем в oбычных услoвиях.
Атмoсфернoе давление в разных тoчках местнoсти мoжет значительнo oтличаться oт давления на метеoстанции, в зависимoсти oт услoвий рельефа (при пoдъёме на 10 м давление пoнижается примернo на 1 мм рт.ст.).